Year,Month,Day,Hour,Minute,Value (Times are PST for temperature in C)
2018,05,23,00,00,15.70
2018,05,23,00,01,15.80
2018,05,23,00,02,15.80
2018,05,23,00,03,15.80
2018,05,23,00,04,15.80
2018,05,23,00,05,15.80
2018,05,23,00,06,15.80
2018,05,23,00,07,15.80
2018,05,23,00,08,15.80
2018,05,23,00,09,15.70
2018,05,23,00,10,15.70
2018,05,23,00,11,15.70
2018,05,23,00,12,15.60
2018,05,23,00,13,15.60
2018,05,23,00,14,15.50
2018,05,23,00,15,15.50
2018,05,23,00,16,15.40
2018,05,23,00,17,15.40
2018,05,23,00,18,15.40
2018,05,23,00,19,15.30
2018,05,23,00,20,15.30
2018,05,23,00,21,15.30
2018,05,23,00,22,15.30
2018,05,23,00,23,15.30
2018,05,23,00,24,15.30
2018,05,23,00,25,15.30
2018,05,23,00,26,15.20
2018,05,23,00,27,15.20
2018,05,23,00,28,15.20
2018,05,23,00,29,15.20
2018,05,23,00,30,15.10
2018,05,23,00,31,15.10
2018,05,23,00,32,15.10
2018,05,23,00,33,15.00
2018,05,23,00,34,15.00
2018,05,23,00,35,15.00
2018,05,23,00,36,14.90
2018,05,23,00,37,14.90
2018,05,23,00,38,14.90
2018,05,23,00,39,14.80
2018,05,23,00,40,14.80
2018,05,23,00,41,14.80
2018,05,23,00,42,14.80
2018,05,23,00,43,14.80
2018,05,23,00,44,14.80
2018,05,23,00,45,14.80
2018,05,23,00,46,14.80
2018,05,23,00,47,14.80
2018,05,23,00,48,14.80
2018,05,23,00,49,14.80
2018,05,23,00,50,14.80
2018,05,23,00,51,14.80
2018,05,23,00,52,14.80
2018,05,23,00,53,14.80
2018,05,23,00,54,14.80
2018,05,23,00,55,14.80
2018,05,23,00,56,14.80
2018,05,23,00,57,14.80
2018,05,23,00,58,14.70
2018,05,23,00,59,14.70
2018,05,23,01,00,14.70
2018,05,23,01,01,14.70
2018,05,23,01,02,14.70
2018,05,23,01,03,14.60
2018,05,23,01,04,14.60
2018,05,23,01,05,14.60
2018,05,23,01,06,14.60
2018,05,23,01,07,14.50
2018,05,23,01,08,14.50
2018,05,23,01,09,14.50
2018,05,23,01,10,14.50
2018,05,23,01,11,14.50
2018,05,23,01,12,14.40
2018,05,23,01,13,14.40
2018,05,23,01,14,14.40
2018,05,23,01,15,14.40
2018,05,23,01,16,14.40
2018,05,23,01,17,14.40
2018,05,23,01,18,14.40
2018,05,23,01,19,14.40
2018,05,23,01,20,14.40
2018,05,23,01,21,14.40
2018,05,23,01,22,14.30
2018,05,23,01,23,14.30
2018,05,23,01,24,14.30
2018,05,23,01,25,14.30
2018,05,23,01,26,14.30
2018,05,23,01,27,14.30
2018,05,23,01,28,14.20
2018,05,23,01,29,14.20
2018,05,23,01,30,14.20
2018,05,23,01,31,14.10
2018,05,23,01,32,14.10
2018,05,23,01,33,14.00
2018,05,23,01,34,13.90
2018,05,23,01,35,13.70
2018,05,23,01,36,13.60
2018,05,23,01,37,13.50
2018,05,23,01,38,13.40
2018,05,23,01,39,13.30
2018,05,23,01,40,13.20
2018,05,23,01,41,13.10
2018,05,23,01,42,13.00
2018,05,23,01,43,12.90
2018,05,23,01,44,12.90
2018,05,23,01,45,12.80
2018,05,23,01,46,12.80
2018,05,23,01,47,12.80
2018,05,23,01,48,12.70
2018,05,23,01,49,12.70
2018,05,23,01,50,12.70
2018,05,23,01,51,12.60
2018,05,23,01,52,12.60
2018,05,23,01,53,12.60
2018,05,23,01,54,12.50
2018,05,23,01,55,12.50
2018,05,23,01,56,12.50
2018,05,23,01,57,12.40
2018,05,23,01,58,12.40
2018,05,23,01,59,12.40
2018,05,23,02,00,12.40
2018,05,23,02,01,12.30
2018,05,23,02,02,12.30
2018,05,23,02,03,12.30
2018,05,23,02,04,12.30
2018,05,23,02,05,12.30
2018,05,23,02,06,12.30
2018,05,23,02,07,12.30
2018,05,23,02,08,12.30
2018,05,23,02,09,12.30
2018,05,23,02,10,12.20
2018,05,23,02,11,12.20
2018,05,23,02,12,12.10
2018,05,23,02,13,12.10
2018,05,23,02,14,12.00
2018,05,23,02,15,12.00
2018,05,23,02,16,11.90
2018,05,23,02,17,11.90
2018,05,23,02,18,11.80
2018,05,23,02,19,11.80
2018,05,23,02,20,11.80
2018,05,23,02,21,11.80
2018,05,23,02,22,11.80
2018,05,23,02,23,11.70
2018,05,23,02,24,11.70
2018,05,23,02,25,11.70
2018,05,23,02,26,11.60
2018,05,23,02,27,11.60
2018,05,23,02,28,11.60
2018,05,23,02,29,11.60
2018,05,23,02,30,11.60
2018,05,23,02,31,11.60
2018,05,23,02,32,11.60
2018,05,23,02,33,11.50
2018,05,23,02,34,11.40
2018,05,23,02,35,11.40
2018,05,23,02,36,11.40
2018,05,23,02,37,11.40
2018,05,23,02,38,11.40
2018,05,23,02,39,11.40
2018,05,23,02,40,11.40
2018,05,23,02,41,11.40
2018,05,23,02,42,11.40
2018,05,23,02,43,11.40
2018,05,23,02,44,11.40
2018,05,23,02,45,11.40
2018,05,23,02,46,11.40
2018,05,23,02,47,11.40
2018,05,23,02,48,11.40
2018,05,23,02,49,11.40
2018,05,23,02,50,11.40
2018,05,23,02,51,11.30
2018,05,23,02,52,11.30
2018,05,23,02,53,11.30
2018,05,23,02,54,11.30
2018,05,23,02,55,11.30
2018,05,23,02,56,11.30
2018,05,23,02,57,11.30
2018,05,23,02,58,11.30
2018,05,23,02,59,11.30
2018,05,23,03,00,11.30
2018,05,23,03,01,11.30
2018,05,23,03,02,11.30
2018,05,23,03,03,11.40
2018,05,23,03,04,11.40
2018,05,23,03,05,11.40
2018,05,23,03,06,11.40
2018,05,23,03,07,11.40
2018,05,23,03,08,11.40
2018,05,23,03,09,11.40
2018,05,23,03,10,11.40
2018,05,23,03,11,11.40
2018,05,23,03,12,11.40
2018,05,23,03,13,11.40
2018,05,23,03,14,11.30
2018,05,23,03,15,11.30
2018,05,23,03,16,11.30
2018,05,23,03,17,11.30
2018,05,23,03,18,11.30
2018,05,23,03,19,11.30
2018,05,23,03,20,11.30
2018,05,23,03,21,11.30
2018,05,23,03,22,11.30
2018,05,23,03,23,11.30
2018,05,23,03,24,11.30
2018,05,23,03,25,11.30
2018,05,23,03,26,11.30
2018,05,23,03,27,11.30
2018,05,23,03,28,11.20
2018,05,23,03,29,11.20
2018,05,23,03,30,11.20
2018,05,23,03,31,11.20
2018,05,23,03,32,11.20
2018,05,23,03,33,11.20
2018,05,23,03,34,11.20
2018,05,23,03,35,11.20
2018,05,23,03,36,11.20
2018,05,23,03,37,11.20
2018,05,23,03,38,11.20
2018,05,23,03,39,11.20
2018,05,23,03,40,11.20
2018,05,23,03,41,11.30
2018,05,23,03,42,11.30
2018,05,23,03,43,11.30
2018,05,23,03,44,11.30
2018,05,23,03,45,11.40
2018,05,23,03,46,11.40
2018,05,23,03,47,11.40
2018,05,23,03,48,11.40
2018,05,23,03,49,11.40
2018,05,23,03,50,11.50
2018,05,23,03,51,11.60
2018,05,23,03,52,11.60
2018,05,23,03,53,11.60
2018,05,23,03,54,11.60
2018,05,23,03,55,11.60
2018,05,23,03,56,11.60
2018,05,23,03,57,11.70
2018,05,23,03,58,11.70
2018,05,23,03,59,11.70
2018,05,23,04,00,11.80
2018,05,23,04,01,11.80
2018,05,23,04,02,11.80
2018,05,23,04,03,11.80
2018,05,23,04,04,11.80
2018,05,23,04,05,11.80
2018,05,23,04,06,11.90
2018,05,23,04,07,11.90
2018,05,23,04,08,11.90
2018,05,23,04,09,11.90
2018,05,23,04,10,11.90
2018,05,23,04,11,11.90
2018,05,23,04,12,11.90
2018,05,23,04,13,12.00
2018,05,23,04,14,12.00
2018,05,23,04,15,12.00
2018,05,23,04,16,12.00
2018,05,23,04,17,12.00
2018,05,23,04,18,12.00
2018,05,23,04,19,12.10
2018,05,23,04,20,12.10
2018,05,23,04,21,12.10
2018,05,23,04,22,12.20
2018,05,23,04,23,12.20
2018,05,23,04,24,12.20
2018,05,23,04,25,12.30
2018,05,23,04,26,12.30
2018,05,23,04,27,12.30
2018,05,23,04,28,12.30
2018,05,23,04,29,12.30
2018,05,23,04,30,12.30
2018,05,23,04,31,12.30
2018,05,23,04,32,12.30
2018,05,23,04,33,12.30
2018,05,23,04,34,12.40
2018,05,23,04,35,12.40
2018,05,23,04,36,12.50
2018,05,23,04,37,12.50
2018,05,23,04,38,12.50
2018,05,23,04,39,12.60
2018,05,23,04,40,12.70
2018,05,23,04,41,12.70
2018,05,23,04,42,12.80
2018,05,23,04,43,12.80
2018,05,23,04,44,12.80
2018,05,23,04,45,12.90
2018,05,23,04,46,12.90
2018,05,23,04,47,13.00
2018,05,23,04,48,13.00
2018,05,23,04,49,13.10
2018,05,23,04,50,13.10
2018,05,23,04,51,13.20
2018,05,23,04,52,13.20
2018,05,23,04,53,13.30
2018,05,23,04,54,13.30
2018,05,23,04,55,13.30
2018,05,23,04,56,13.30
2018,05,23,04,57,13.30
2018,05,23,04,58,13.30
2018,05,23,04,59,13.30
2018,05,23,05,00,13.30
2018,05,23,05,01,13.30
2018,05,23,05,02,13.30
2018,05,23,05,03,13.30
2018,05,23,05,04,13.30
2018,05,23,05,05,13.40
2018,05,23,05,06,13.40
2018,05,23,05,07,13.30
2018,05,23,05,08,13.30
2018,05,23,05,09,13.30
2018,05,23,05,10,13.30
2018,05,23,05,11,13.30
2018,05,23,05,12,13.20
2018,05,23,05,13,13.20
2018,05,23,05,14,13.20
2018,05,23,05,15,13.20
2018,05,23,05,16,13.10
2018,05,23,05,17,13.00
2018,05,23,05,18,12.90
2018,05,23,05,19,12.80
2018,05,23,05,20,12.80
2018,05,23,05,21,12.60
2018,05,23,05,22,12.50
2018,05,23,05,23,12.40
2018,05,23,05,24,12.30
2018,05,23,05,25,12.20
2018,05,23,05,26,12.10
2018,05,23,05,27,12.00
2018,05,23,05,28,12.00
2018,05,23,05,29,11.90
2018,05,23,05,30,11.90
2018,05,23,05,31,11.90
2018,05,23,05,32,11.90
2018,05,23,05,33,11.90
2018,05,23,05,34,11.90
2018,05,23,05,35,12.00
2018,05,23,05,36,12.00
2018,05,23,05,37,12.00
2018,05,23,05,38,12.10
2018,05,23,05,39,12.10
2018,05,23,05,40,12.20
2018,05,23,05,41,12.20
2018,05,23,05,42,12.20
2018,05,23,05,43,12.30
2018,05,23,05,44,12.30
2018,05,23,05,45,12.30
2018,05,23,05,46,12.40
2018,05,23,05,47,12.50
2018,05,23,05,48,12.50
2018,05,23,05,49,12.60
2018,05,23,05,50,12.70
2018,05,23,05,51,12.80
2018,05,23,05,52,12.80
2018,05,23,05,53,12.90
2018,05,23,05,54,12.90
2018,05,23,05,55,13.00
2018,05,23,05,56,13.00
2018,05,23,05,57,13.10
2018,05,23,05,58,13.10
2018,05,23,05,59,13.20
2018,05,23,06,00,13.20
2018,05,23,06,01,13.20
2018,05,23,06,02,13.30
2018,05,23,06,03,13.30
2018,05,23,06,04,13.30
2018,05,23,06,05,13.30
2018,05,23,06,06,13.30
2018,05,23,06,07,13.40
2018,05,23,06,08,13.40
2018,05,23,06,09,13.50
2018,05,23,06,10,13.50
2018,05,23,06,11,13.50
2018,05,23,06,12,13.50
2018,05,23,06,13,13.60
2018,05,23,06,14,13.60
2018,05,23,06,15,13.60
2018,05,23,06,16,13.70
2018,05,23,06,17,13.70
2018,05,23,06,18,13.70
2018,05,23,06,19,13.70
2018,05,23,06,20,13.70
2018,05,23,06,21,13.70
2018,05,23,06,22,13.70
2018,05,23,06,23,13.80
2018,05,23,06,24,13.80
2018,05,23,06,25,13.80
2018,05,23,06,26,13.80
2018,05,23,06,27,13.90
2018,05,23,06,28,13.90
2018,05,23,06,29,14.00
2018,05,23,06,30,14.00
2018,05,23,06,31,14.00
2018,05,23,06,32,14.10
2018,05,23,06,33,14.10
2018,05,23,06,34,14.20
2018,05,23,06,35,14.20
2018,05,23,06,36,14.20
2018,05,23,06,37,14.40
2018,05,23,06,38,14.50
2018,05,23,06,39,14.50
2018,05,23,06,40,14.60
2018,05,23,06,41,14.60
2018,05,23,06,42,14.70
2018,05,23,06,43,14.80
2018,05,23,06,44,14.80
2018,05,23,06,45,14.90
2018,05,23,06,46,15.00
2018,05,23,06,47,15.10
2018,05,23,06,48,15.20
2018,05,23,06,49,15.20
2018,05,23,06,50,15.30
2018,05,23,06,51,15.40
2018,05,23,06,52,15.40
2018,05,23,06,53,15.50
2018,05,23,06,54,15.50
2018,05,23,06,55,15.60
2018,05,23,06,56,15.60
2018,05,23,06,57,15.70
2018,05,23,06,58,15.80
2018,05,23,06,59,15.90
2018,05,23,07,00,16.00
2018,05,23,07,01,16.10
2018,05,23,07,02,16.10
2018,05,23,07,03,16.10
2018,05,23,07,04,16.10
2018,05,23,07,05,16.10
2018,05,23,07,06,16.10
2018,05,23,07,07,16.10
2018,05,23,07,08,16.00
2018,05,23,07,09,15.90
2018,05,23,07,10,15.80
2018,05,23,07,11,15.60
2018,05,23,07,12,15.50
2018,05,23,07,13,15.40
2018,05,23,07,14,15.20
2018,05,23,07,15,15.10
2018,05,23,07,16,15.00
2018,05,23,07,17,14.90
2018,05,23,07,18,14.90
2018,05,23,07,19,14.80
2018,05,23,07,20,14.80
2018,05,23,07,21,14.80
2018,05,23,07,22,14.90
2018,05,23,07,23,15.00
2018,05,23,07,24,15.00
2018,05,23,07,25,15.10
2018,05,23,07,26,15.20
2018,05,23,07,27,15.30
2018,05,23,07,28,15.30
2018,05,23,07,29,15.40
2018,05,23,07,30,15.50
2018,05,23,07,31,15.50
2018,05,23,07,32,15.60
2018,05,23,07,33,15.60
2018,05,23,07,34,15.50
2018,05,23,07,35,15.50
2018,05,23,07,36,15.40
2018,05,23,07,37,15.40
2018,05,23,07,38,15.40
2018,05,23,07,39,15.40
2018,05,23,07,40,15.30
2018,05,23,07,41,15.30
2018,05,23,07,42,15.30
2018,05,23,07,43,15.40
2018,05,23,07,44,15.50
2018,05,23,07,45,15.60
2018,05,23,07,46,15.60
2018,05,23,07,47,15.80
2018,05,23,07,48,15.80
2018,05,23,07,49,15.90
2018,05,23,07,50,16.00
2018,05,23,07,51,16.10
2018,05,23,07,52,16.10
2018,05,23,07,53,16.00
2018,05,23,07,54,15.90
2018,05,23,07,55,15.80
2018,05,23,07,56,15.80
2018,05,23,07,57,15.80
2018,05,23,07,58,15.80
2018,05,23,07,59,15.70
2018,05,23,08,00,15.70
2018,05,23,08,01,15.60
2018,05,23,08,02,15.70
2018,05,23,08,03,15.70
2018,05,23,08,04,15.70
2018,05,23,08,05,15.70
2018,05,23,08,06,15.80
2018,05,23,08,07,15.80
2018,05,23,08,08,15.90
2018,05,23,08,09,16.00
2018,05,23,08,10,16.10
2018,05,23,08,11,16.20
2018,05,23,08,12,16.30
2018,05,23,08,13,16.40
2018,05,23,08,14,16.50
2018,05,23,08,15,16.60
2018,05,23,08,16,16.70
2018,05,23,08,17,16.80
2018,05,23,08,18,16.80
2018,05,23,08,19,17.00
2018,05,23,08,20,17.00
2018,05,23,08,21,17.10
2018,05,23,08,22,17.10
2018,05,23,08,23,17.30
2018,05,23,08,24,17.30
2018,05,23,08,25,17.30
2018,05,23,08,26,17.30
2018,05,23,08,27,17.40
2018,05,23,08,28,17.50
2018,05,23,08,29,17.50
2018,05,23,08,30,17.70
2018,05,23,08,31,17.70
2018,05,23,08,32,17.80
2018,05,23,08,33,17.80
2018,05,23,08,34,17.90
2018,05,23,08,35,17.90
2018,05,23,08,36,18.10
2018,05,23,08,37,18.10
2018,05,23,08,38,18.20
2018,05,23,08,39,18.20
2018,05,23,08,40,18.30
2018,05,23,08,41,18.30
2018,05,23,08,42,18.40
2018,05,23,08,43,18.50
2018,05,23,08,44,18.50
2018,05,23,08,45,18.60
2018,05,23,08,46,18.60
2018,05,23,08,47,18.70
2018,05,23,08,48,18.70
2018,05,23,08,49,18.70
2018,05,23,08,50,18.70
2018,05,23,08,51,18.70
2018,05,23,08,52,18.70
2018,05,23,08,53,18.70
2018,05,23,08,54,18.70
2018,05,23,08,55,18.60
2018,05,23,08,56,18.60
2018,05,23,08,57,18.50
2018,05,23,08,58,18.50
2018,05,23,08,59,18.50
2018,05,23,09,00,18.50
2018,05,23,09,01,18.40
2018,05,23,09,02,18.40
2018,05,23,09,03,18.40
2018,05,23,09,04,18.40
2018,05,23,09,05,18.40
2018,05,23,09,06,18.40
2018,05,23,09,07,18.40
2018,05,23,09,08,18.40
2018,05,23,09,09,18.30
2018,05,23,09,10,18.30
2018,05,23,09,11,18.20
2018,05,23,09,12,18.10
2018,05,23,09,13,18.10
2018,05,23,09,14,18.10
2018,05,23,09,15,18.00
2018,05,23,09,16,17.90
2018,05,23,09,17,18.00
2018,05,23,09,18,18.10
2018,05,23,09,19,18.10
2018,05,23,09,20,18.10
2018,05,23,09,21,18.10
2018,05,23,09,22,18.10
2018,05,23,09,23,18.10
2018,05,23,09,24,18.20
2018,05,23,09,25,18.20
2018,05,23,09,26,18.20
2018,05,23,09,27,18.20
2018,05,23,09,28,18.20
2018,05,23,09,29,18.20
2018,05,23,09,30,18.20
2018,05,23,09,31,18.20
2018,05,23,09,32,18.20
2018,05,23,09,33,18.20
2018,05,23,09,34,18.20
2018,05,23,09,35,18.20
2018,05,23,09,36,18.20
2018,05,23,09,37,18.20
2018,05,23,09,38,18.20
2018,05,23,09,39,18.20
2018,05,23,09,40,18.30
2018,05,23,09,41,18.40
2018,05,23,09,42,18.40
2018,05,23,09,43,18.40
2018,05,23,09,44,18.50
2018,05,23,09,45,18.60
2018,05,23,09,46,18.60
2018,05,23,09,47,18.60
2018,05,23,09,48,18.60
2018,05,23,09,49,18.50
2018,05,23,09,50,18.50
2018,05,23,09,51,18.40
2018,05,23,09,52,18.40
2018,05,23,09,53,18.40
2018,05,23,09,54,18.40
2018,05,23,09,55,18.30
2018,05,23,09,56,18.40
2018,05,23,09,57,18.50
2018,05,23,09,58,18.50
2018,05,23,09,59,18.60
2018,05,23,10,00,18.70
2018,05,23,10,01,18.80
2018,05,23,10,02,18.80
2018,05,23,10,03,18.80
2018,05,23,10,04,18.80
2018,05,23,10,05,18.90
2018,05,23,10,06,18.90
2018,05,23,10,07,18.90
2018,05,23,10,08,18.90
2018,05,23,10,09,18.90
2018,05,23,10,10,19.00
2018,05,23,10,11,19.10
2018,05,23,10,12,19.20
2018,05,23,10,13,19.30
2018,05,23,10,14,19.40
2018,05,23,10,15,19.60
2018,05,23,10,16,19.70
2018,05,23,10,17,19.70
2018,05,23,10,18,19.70
2018,05,23,10,19,19.60
2018,05,23,10,20,19.60
2018,05,23,10,21,19.60
2018,05,23,10,22,19.70
2018,05,23,10,23,19.80
2018,05,23,10,24,19.90
2018,05,23,10,25,19.90
2018,05,23,10,26,20.10
2018,05,23,10,27,20.10
2018,05,23,10,28,20.00
2018,05,23,10,29,19.90
2018,05,23,10,30,19.70
2018,05,23,10,31,19.60
2018,05,23,10,32,19.40
2018,05,23,10,33,19.40
2018,05,23,10,34,19.30
2018,05,23,10,35,19.30
2018,05,23,10,36,19.20
2018,05,23,10,37,19.20
2018,05,23,10,38,19.10
2018,05,23,10,39,18.90
2018,05,23,10,40,18.90
2018,05,23,10,41,18.90
2018,05,23,10,42,18.90
2018,05,23,10,43,18.80
2018,05,23,10,44,18.80
2018,05,23,10,45,18.90
2018,05,23,10,46,18.90
2018,05,23,10,47,18.90
2018,05,23,10,48,18.90
2018,05,23,10,49,18.90
2018,05,23,10,50,19.00
2018,05,23,10,51,19.10
2018,05,23,10,52,19.10
2018,05,23,10,53,19.10
2018,05,23,10,54,19.10
2018,05,23,10,55,19.10
2018,05,23,10,56,19.30
2018,05,23,10,57,19.40
2018,05,23,10,58,19.40
2018,05,23,10,59,19.40
2018,05,23,11,00,19.40
2018,05,23,11,01,19.40
2018,05,23,11,02,19.50
2018,05,23,11,03,19.60
2018,05,23,11,04,19.60
2018,05,23,11,05,19.70
2018,05,23,11,06,19.80
2018,05,23,11,07,19.90
2018,05,23,11,08,19.80
2018,05,23,11,09,19.70
2018,05,23,11,10,19.70
2018,05,23,11,11,19.70
2018,05,23,11,12,19.70
2018,05,23,11,13,19.70
2018,05,23,11,14,19.60
2018,05,23,11,15,19.50
2018,05,23,11,16,19.50
2018,05,23,11,17,19.50
2018,05,23,11,18,19.50
2018,05,23,11,19,19.60
2018,05,23,11,20,19.70
2018,05,23,11,21,19.70
2018,05,23,11,22,19.80
2018,05,23,11,23,19.90
2018,05,23,11,24,19.90
2018,05,23,11,25,20.00
2018,05,23,11,26,20.10
2018,05,23,11,27,20.20
2018,05,23,11,28,20.20
2018,05,23,11,29,20.20
2018,05,23,11,30,20.20
2018,05,23,11,31,20.20
2018,05,23,11,32,20.20
2018,05,23,11,33,20.20
2018,05,23,11,34,20.10
2018,05,23,11,35,20.00
2018,05,23,11,36,19.90
2018,05,23,11,37,19.90
2018,05,23,11,38,19.70
2018,05,23,11,39,19.60
2018,05,23,11,40,19.60
2018,05,23,11,41,19.60
2018,05,23,11,42,19.70
2018,05,23,11,43,19.80
2018,05,23,11,44,19.90
2018,05,23,11,45,19.90
2018,05,23,11,46,19.80
2018,05,23,11,47,19.80
2018,05,23,11,48,19.80
2018,05,23,11,49,19.80
2018,05,23,11,50,19.80
2018,05,23,11,51,19.80
2018,05,23,11,52,19.90
2018,05,23,11,53,19.90
2018,05,23,11,54,19.90
2018,05,23,11,55,20.00
2018,05,23,11,56,20.20
2018,05,23,11,57,20.30
2018,05,23,11,58,20.50
2018,05,23,11,59,20.60
2018,05,23,12,00,20.60
2018,05,23,12,01,20.50
2018,05,23,12,02,20.40
2018,05,23,12,03,20.40
2018,05,23,12,04,20.40
2018,05,23,12,05,20.30
2018,05,23,12,06,20.40
2018,05,23,12,07,20.40
2018,05,23,12,08,20.40
2018,05,23,12,09,20.50
2018,05,23,12,10,20.50
2018,05,23,12,11,20.70
2018,05,23,12,12,20.80
2018,05,23,12,13,20.90
2018,05,23,12,14,20.80
2018,05,23,12,15,20.70
2018,05,23,12,16,20.50
2018,05,23,12,17,20.40
2018,05,23,12,18,20.30
2018,05,23,12,19,20.30
2018,05,23,12,20,20.30
2018,05,23,12,21,20.30
2018,05,23,12,22,20.30
2018,05,23,12,23,20.30
2018,05,23,12,24,20.20
2018,05,23,12,25,20.20
2018,05,23,12,26,20.30
2018,05,23,12,27,20.30
2018,05,23,12,28,20.50
2018,05,23,12,29,20.60
2018,05,23,12,30,20.80
2018,05,23,12,31,20.90
2018,05,23,12,32,21.00
2018,05,23,12,33,21.10
2018,05,23,12,34,21.20
2018,05,23,12,35,21.20
2018,05,23,12,36,21.20
2018,05,23,12,37,21.30
2018,05,23,12,38,21.20
2018,05,23,12,39,21.20
2018,05,23,12,40,21.20
2018,05,23,12,41,21.20
2018,05,23,12,42,21.30
2018,05,23,12,43,21.30
2018,05,23,12,44,21.30
2018,05,23,12,45,21.30
2018,05,23,12,46,21.30
2018,05,23,12,47,21.50
2018,05,23,12,48,21.60
2018,05,23,12,49,21.70
2018,05,23,12,50,21.90
2018,05,23,12,51,21.90
2018,05,23,12,52,22.00
2018,05,23,12,53,22.10
2018,05,23,12,54,22.20
2018,05,23,12,55,22.30
2018,05,23,12,56,22.30
2018,05,23,12,57,22.30
2018,05,23,12,58,22.30
2018,05,23,12,59,22.30
2018,05,23,13,00,22.20
2018,05,23,13,01,22.00
2018,05,23,13,02,21.90
2018,05,23,13,03,21.70
2018,05,23,13,04,21.70
2018,05,23,13,05,21.60
2018,05,23,13,06,21.40
2018,05,23,13,07,21.40
2018,05,23,13,08,21.40
2018,05,23,13,09,21.60
2018,05,23,13,10,21.60
2018,05,23,13,11,21.70
2018,05,23,13,12,21.80
2018,05,23,13,13,21.90
2018,05,23,13,14,22.00
2018,05,23,13,15,22.00
2018,05,23,13,16,22.00
2018,05,23,13,17,22.00
2018,05,23,13,18,22.00
2018,05,23,13,19,22.00
2018,05,23,13,20,22.00
2018,05,23,13,21,21.90
2018,05,23,13,22,21.80
2018,05,23,13,23,21.70
2018,05,23,13,24,21.70
2018,05,23,13,25,21.60
2018,05,23,13,26,21.70
2018,05,23,13,27,21.70
2018,05,23,13,28,21.80
2018,05,23,13,29,21.90
2018,05,23,13,30,22.00
2018,05,23,13,31,22.20
2018,05,23,13,32,22.30
2018,05,23,13,33,22.40
2018,05,23,13,34,22.60
2018,05,23,13,35,22.70
2018,05,23,13,36,22.70
2018,05,23,13,37,22.60
2018,05,23,13,38,22.40
2018,05,23,13,39,22.40
2018,05,23,13,40,22.30
2018,05,23,13,41,22.30
2018,05,23,13,42,22.30
2018,05,23,13,43,22.40
2018,05,23,13,44,22.40
2018,05,23,13,45,22.40
2018,05,23,13,46,22.40
2018,05,23,13,47,22.30
2018,05,23,13,48,22.30
2018,05,23,13,49,22.20
2018,05,23,13,50,22.30
2018,05,23,13,51,22.20
2018,05,23,13,52,22.20
2018,05,23,13,53,22.20
2018,05,23,13,54,22.20
2018,05,23,13,55,22.20
2018,05,23,13,56,22.40
2018,05,23,13,57,22.50
2018,05,23,13,58,22.60
2018,05,23,13,59,22.70
2018,05,23,14,00,22.70
2018,05,23,14,01,22.70
2018,05,23,14,02,22.60
2018,05,23,14,03,22.50
2018,05,23,14,04,22.40
2018,05,23,14,05,22.30
2018,05,23,14,06,22.20
2018,05,23,14,07,22.10
2018,05,23,14,08,22.10
2018,05,23,14,09,22.00
2018,05,23,14,10,21.90
2018,05,23,14,11,21.90
2018,05,23,14,12,21.90
2018,05,23,14,13,21.90
2018,05,23,14,14,22.00
2018,05,23,14,15,22.10
2018,05,23,14,16,22.20
2018,05,23,14,17,22.30
2018,05,23,14,18,22.40
2018,05,23,14,19,22.30
2018,05,23,14,20,22.20
2018,05,23,14,21,22.00
2018,05,23,14,22,21.80
2018,05,23,14,23,21.70
2018,05,23,14,24,21.70
2018,05,23,14,25,21.70
2018,05,23,14,26,21.70
2018,05,23,14,27,21.70
2018,05,23,14,28,21.70
2018,05,23,14,29,21.80
2018,05,23,14,30,21.80
2018,05,23,14,31,21.80
2018,05,23,14,32,21.80
2018,05,23,14,33,21.90
2018,05,23,14,34,21.90
2018,05,23,14,35,22.00
2018,05,23,14,36,22.10
2018,05,23,14,37,22.20
2018,05,23,14,38,22.30
2018,05,23,14,39,22.30
2018,05,23,14,40,22.40
2018,05,23,14,41,22.40
2018,05,23,14,42,22.40
2018,05,23,14,43,22.40
2018,05,23,14,44,22.50
2018,05,23,14,45,22.60
2018,05,23,14,46,22.60
2018,05,23,14,47,22.60
2018,05,23,14,48,22.70
2018,05,23,14,49,22.60
2018,05,23,14,50,22.60
2018,05,23,14,51,22.70
2018,05,23,14,52,22.80
2018,05,23,14,53,22.90
2018,05,23,14,54,22.90
2018,05,23,14,55,22.80
2018,05,23,14,56,22.80
2018,05,23,14,57,22.80
2018,05,23,14,58,22.90
2018,05,23,14,59,22.80
2018,05,23,15,00,22.90
2018,05,23,15,01,22.80
2018,05,23,15,02,22.90
2018,05,23,15,03,22.90
2018,05,23,15,04,23.10
2018,05,23,15,05,23.20
2018,05,23,15,06,23.30
2018,05,23,15,07,23.30
2018,05,23,15,08,23.40
2018,05,23,15,09,23.50
2018,05,23,15,10,23.40
2018,05,23,15,11,23.40
2018,05,23,15,12,23.40
2018,05,23,15,13,23.30
2018,05,23,15,14,23.30
2018,05,23,15,15,23.40
2018,05,23,15,16,23.30
2018,05,23,15,17,23.30
2018,05,23,15,18,23.30
2018,05,23,15,19,23.30
2018,05,23,15,20,23.30
2018,05,23,15,21,23.30
2018,05,23,15,22,23.30
2018,05,23,15,23,23.40
2018,05,23,15,24,23.40
2018,05,23,15,25,23.50
2018,05,23,15,26,23.60
2018,05,23,15,27,23.70
2018,05,23,15,28,23.70
2018,05,23,15,29,23.70
2018,05,23,15,30,23.70
2018,05,23,15,31,23.70
2018,05,23,15,32,23.70
2018,05,23,15,33,23.70
2018,05,23,15,34,23.70
2018,05,23,15,35,23.70
2018,05,23,15,36,23.90
2018,05,23,15,37,24.00
2018,05,23,15,38,24.10
2018,05,23,15,39,24.10
2018,05,23,15,40,24.10
2018,05,23,15,41,24.00
2018,05,23,15,42,23.90
2018,05,23,15,43,23.90
2018,05,23,15,44,23.90
2018,05,23,15,45,23.90
2018,05,23,15,46,23.90
2018,05,23,15,47,23.90
2018,05,23,15,48,23.90
2018,05,23,15,49,23.90
2018,05,23,15,50,23.90
2018,05,23,15,51,23.90
2018,05,23,15,52,23.80
2018,05,23,15,53,23.80
2018,05,23,15,54,23.80
2018,05,23,15,55,23.70
2018,05,23,15,56,23.60
2018,05,23,15,57,23.50
2018,05,23,15,58,23.40
2018,05,23,15,59,23.40
2018,05,23,16,00,23.30
2018,05,23,16,01,23.30
2018,05,23,16,02,23.30
2018,05,23,16,03,23.30
2018,05,23,16,04,23.30
2018,05,23,16,05,23.40
2018,05,23,16,06,23.40
2018,05,23,16,07,23.40
2018,05,23,16,08,23.40
2018,05,23,16,09,23.50
2018,05,23,16,10,23.60
2018,05,23,16,11,23.60
2018,05,23,16,12,23.60
2018,05,23,16,13,23.60
2018,05,23,16,14,23.60
2018,05,23,16,15,23.60
2018,05,23,16,16,23.70
2018,05,23,16,17,23.70
2018,05,23,16,18,23.70
2018,05,23,16,19,23.70
2018,05,23,16,20,23.70
2018,05,23,16,21,23.70
2018,05,23,16,22,23.70
2018,05,23,16,23,23.80
2018,05,23,16,24,23.90
2018,05,23,16,25,23.90
2018,05,23,16,26,23.90
2018,05,23,16,27,23.80
2018,05,23,16,28,23.80
2018,05,23,16,29,23.80
2018,05,23,16,30,23.90
2018,05,23,16,31,23.90
2018,05,23,16,32,24.00
2018,05,23,16,33,24.10
2018,05,23,16,34,24.10
2018,05,23,16,35,24.10
2018,05,23,16,36,24.10
2018,05,23,16,37,24.00
2018,05,23,16,38,23.90
2018,05,23,16,39,23.90
2018,05,23,16,40,23.80
2018,05,23,16,41,23.70
2018,05,23,16,42,23.70
2018,05,23,16,43,23.60
2018,05,23,16,44,23.50
2018,05,23,16,45,23.40
2018,05,23,16,46,23.40
2018,05,23,16,47,23.40
2018,05,23,16,48,23.40
2018,05,23,16,49,23.30
2018,05,23,16,50,23.30
2018,05,23,16,51,23.30
2018,05,23,16,52,23.30
2018,05,23,16,53,23.30
2018,05,23,16,54,23.30
2018,05,23,16,55,23.30
2018,05,23,16,56,23.30
2018,05,23,16,57,23.30
2018,05,23,16,58,23.30
2018,05,23,16,59,23.30
2018,05,23,17,00,23.30
2018,05,23,17,01,23.30
2018,05,23,17,02,23.30
2018,05,23,17,03,23.30
2018,05,23,17,04,23.30
2018,05,23,17,05,23.30
2018,05,23,17,06,23.30
2018,05,23,17,07,23.30
2018,05,23,17,08,23.30
2018,05,23,17,09,23.30
2018,05,23,17,10,23.30
2018,05,23,17,11,23.30
2018,05,23,17,12,23.30
2018,05,23,17,13,23.30
2018,05,23,17,14,23.30
2018,05,23,17,15,23.30
2018,05,23,17,16,23.30
2018,05,23,17,17,23.30
2018,05,23,17,18,23.30
2018,05,23,17,19,23.30